GFSNE_850_thetae_126.txt.gz
Theta_e
328 328 328 328 328 325 323 321 321 322 321 322 323 323 322 320 319 318 318 317 317 317 316 315 312 314 315 316 316 317 317 316 316 316 314 314 315 315
328 329 329 328 327 327 322 322 322 321 321 321 321 322 322 319 319 317 316 317 318 316 317 317 313 311 312 313 313 314 315 314 313 313 315 314 314 315
328 330 329 328 328 327 320 321 322 322 321 322 321 322 322 319 319 318 317 317 317 317 318 318 318 317 316 316 316 316 316 315 315 315 315 315 315 314
327 328 329 328 327 324 320 321 321 322 322 322 322 322 321 321 320 318 317 318 318 317 318 317 318 318 318 318 318 317 317 317 316 316 315 315 314 314
328 327 328 328 326 319 321 320 320 322 321 321 321 320 320 320 318 317 318 317 315 315 317 317 317 318 318 318 318 318 317 317 316 315 315 314 314 314
328 327 328 328 324 320 320 320 321 321 321 321 320 320 320 320 317 317 317 316 314 317 316 317 317 317 317 317 317 316 316 315 314 314 314 314 312 311
328 327 326 326 320 320 321 321 322 321 320 320 319 319 319 319 317 316 317 316 316 315 316 317 317 317 316 315 314 313 313 313 313 313 311 309 306 306
328 326 326 322 321 321 322 321 320 320 320 319 318 318 318 318 318 316 315 316 314 315 315 315 315 314 314 313 313 313 313 313 312 311 309 305 304 303
327 326 322 320 321 321 321 321 320 320 319 319 319 318 318 319 319 315 315 317 316 315 315 315 315 314 313 314 314 313 312 310 308 307 305 303 300 299
325 321 320 320 320 321 321 320 320 320 319 319 319 319 319 319 317 316 315 316 316 315 315 314 313 312 312 312 312 310 309 306 304 301 298 297 297 296
321 319 320 320 321 321 320 319 319 319 319 319 318 318 317 318 317 317 316 315 315 315 315 313 313 310 309 307 306 305 302 299 297 296 295 295 294 293
319 319 320 320 320 319 320 320 319 319 319 319 318 318 317 316 317 316 316 315 315 314 313 311 312 309 304 301 299 298 296 294 293 293 293 292 292 291
317 319 319 319 318 318 318 318 318 318 318 318 317 317 316 316 316 316 316 316 316 314 314 313 311 309 304 301 296 293 292 292 291 291 290 290 287 283
317 317 318 318 317 317 317 317 316 317 316 316 316 316 315 315 315 313 313 312 311 313 313 311 309 307 305 298 296 291 290 289 289 289 288 283 282 282
318 317 317 315 315 316 315 315 315 315 315 314 314 313 312 312 312 311 311 311 310 310 308 305 304 302 300 298 297 294 291 289 288 285 282 281 281 281
316 315 314 315 315 315 314 314 313 313 313 312 312 311 310 309 307 307 306 306 305 303 301 299 298 297 296 294 293 293 289 287 285 281 281 281 280 280
313 314 314 313 313 311 310 310 309 308 307 308 307 307 305 303 302 301 300 300 300 298 296 295 294 292 291 291 291 288 285 281 280 280 280 280 280 280
303 309 307 306 306 306 305 303 302 301 301 300 300 299 299 298 297 296 296 296 296 294 294 292 291 290 286 282 281 281 280 280 279 279 280 279 279 279
300 296 297 296 296 296 297 296 296 296 296 296 295 295 295 294 294 293 292 292 289 285 283 282 281 281 282 282 280 280 280 280 279 279 279 279 279 279
293 292 292 292 291 292 292 293 292 292 292 292 292 291 291 292 290 285 283 283 282 281 280 280 280 280 280 280 280 280 279 278 278 278 278 278 278 278
288 288 287 288 289 289 289 289 289 289 290 290 289 285 282 281 281 280 280 280 280 280 280 280 280 279 279 279 278 278 277 277 277 277 277 277 278 278
286 286 285 286 286 286 286 286 284 282 281 281 280 280 280 280 280 279 279 279 279 279 279 278 278 277 277 277 277 277 276 276 276 276 275 276 276 276
283 284 284 283 282 281 281 280 280 280 280 280 280 279 279 279 279 278 278 278 278 278 278 277 277 277 277 277 276 276 276 275 275 275 275 275 275 275

GFSNE_850_thetae_129.txt.gz
Theta_e
329 330 331 331 327 327 330 329 326 323 321 320 322 321 322 323 323 320 317 318 318 317 317 316 316 315 314 315 315 315 315 315 316 316 318 318 318 314
330 329 330 327 328 327 328 329 326 323 322 321 323 321 321 322 322 319 319 318 317 318 318 317 317 316 315 314 316 316 317 317 317 317 316 314 314 315
330 329 327 325 328 328 328 328 326 323 322 322 321 322 321 321 322 321 320 317 315 318 318 317 317 316 315 314 315 316 316 315 315 315 314 315 315 315
331 330 326 325 328 329 328 327 326 321 321 321 320 321 321 321 321 319 319 316 315 315 316 317 317 317 316 313 313 314 314 315 316 316 316 316 316 315
330 328 326 326 327 328 328 328 327 320 322 321 321 321 321 321 322 320 319 318 317 317 316 317 317 318 318 317 316 316 316 317 317 317 316 316 315 315
329 326 326 326 327 327 328 327 323 320 321 320 321 320 321 321 320 321 320 318 317 317 318 317 317 317 317 317 317 317 317 315 317 316 316 315 314 313
328 326 327 327 328 327 327 326 321 320 319 320 321 321 320 320 320 320 320 318 317 318 317 316 316 317 316 317 317 317 317 316 315 314 313 312 312 312
328 327 325 327 328 327 328 324 320 320 320 321 321 320 320 319 319 320 318 317 316 317 317 315 315 316 317 317 316 317 316 314 313 312 312 312 309 307
326 325 325 326 327 325 323 320 321 321 321 321 320 320 319 319 319 319 318 317 317 317 315 314 314 314 312 314 313 315 313 313 313 313 312 308 305 303
324 323 325 324 326 325 321 321 321 321 320 320 320 319 319 319 319 318 318 317 315 316 314 313 313 313 311 311 312 313 312 312 312 309 306 304 301 300
323 324 325 323 326 321 321 321 319 321 320 320 320 319 318 318 318 318 318 317 315 314 313 313 313 311 309 308 306 307 307 306 305 302 300 298 298 297
323 324 323 322 320 320 321 320 321 321 320 319 319 318 318 318 318 317 317 317 315 314 313 312 313 309 302 300 300 301 300 298 296 296 296 295 295 294
320 323 322 320 319 320 320 321 321 320 319 318 318 318 318 317 317 317 317 316 317 316 315 314 312 308 305 303 298 295 295 294 293 293 293 293 292 291
322 321 320 319 319 320 320 319 319 319 319 319 318 318 316 317 316 315 315 315 315 315 314 314 312 310 308 304 298 292 290 290 291 291 291 291 287 283
321 319 319 319 320 319 318 318 317 317 317 316 316 315 314 314 314 314 313 313 312 310 309 310 306 306 304 302 301 295 291 289 289 289 289 286 282 282
318 318 318 318 318 318 317 316 316 315 315 314 314 312 312 310 310 309 310 309 309 306 305 303 302 301 300 298 297 294 290 289 288 288 283 281 281 281
313 314 315 314 315 313 314 313 313 312 311 309 309 309 306 306 305 303 304 305 304 301 298 297 296 295 294 294 293 291 288 288 285 282 281 281 280 281
301 303 304 305 305 307 308 307 307 307 307 306 305 303 303 301 300 298 299 299 299 295 294 293 292 293 292 289 287 287 283 281 280 280 280 280 280 280
298 296 297 294 294 294 297 299 299 299 299 299 299 297 297 296 296 295 295 295 293 292 291 290 290 291 290 284 280 280 280 280 280 280 280 279 279 279
291 291 292 291 290 290 290 292 292 293 293 294 294 293 293 293 293 292 292 292 291 288 285 282 281 282 282 282 281 280 280 279 279 279 279 279 279 279
285 286 286 287 287 287 288 289 289 289 289 290 289 289 289 290 290 288 285 284 282 281 281 280 280 280 281 281 280 279 278 277 278 278 278 278 278 278
283 284 284 284 285 285 286 286 286 287 287 287 286 284 282 282 281 281 280 280 280 280 280 279 279 279 279 279 278 278 277 277 276 276 277 277 277 277
282 282 282 283 283 282 282 281 281 280 280 280 280 280 280 280 280 280 280 280 279 279 279 278 278 278 278 277 277 276 276 276 275 275 275 275 275 275

GFSNE_850_thetae_132.txt.gz
Theta_e
327 330 332 331 331 331 330 328 329 329 329 327 327 323 322 322 322 323 322 322 319 319 318 316 317 316 316 316 315 314 313 314 311 311 314 315 317 319
330 332 331 331 331 331 331 330 328 328 328 328 327 326 322 322 322 322 322 323 319 318 315 315 316 317 316 315 315 315 315 314 313 314 316 316 317 318
334 334 333 331 332 330 330 328 328 327 327 327 326 325 323 321 322 322 322 323 319 318 315 317 317 316 316 316 315 314 315 315 316 316 317 317 316 315
332 331 332 333 332 331 329 325 328 328 327 327 326 324 321 321 322 321 322 322 318 317 317 317 317 317 317 317 316 315 314 316 317 317 316 315 315 315
329 329 329 331 332 330 328 325 328 328 328 327 325 321 321 321 322 321 322 322 318 319 317 317 317 318 317 317 316 316 315 315 316 315 315 315 316 316
322 326 324 326 330 330 328 325 327 328 328 327 322 321 321 321 322 321 320 320 320 320 316 314 316 317 317 317 317 317 313 313 313 314 316 316 316 316
321 322 322 321 329 329 326 326 326 327 328 327 321 322 321 320 322 321 320 321 320 320 317 316 315 315 316 317 317 317 316 316 316 316 316 315 315 314
322 322 322 325 326 327 327 326 327 327 327 327 320 321 320 320 321 321 321 320 316 319 317 318 317 317 317 317 317 316 317 314 315 315 315 314 312 312
323 322 321 325 325 326 327 327 327 327 327 326 321 320 320 320 321 320 319 320 319 319 316 316 315 315 316 315 315 316 316 315 315 313 314 313 311 310
323 322 322 323 324 326 325 327 326 325 324 321 321 321 321 321 321 320 320 319 317 315 316 315 314 311 314 314 314 313 314 310 312 307 312 310 309 308
322 323 323 322 324 325 324 325 325 323 321 321 321 321 320 320 320 319 318 317 315 315 315 313 311 310 308 307 306 307 310 308 307 304 307 305 303 302
322 323 323 322 323 323 324 324 324 322 321 321 321 320 320 319 319 318 318 318 315 315 313 310 311 310 301 300 301 304 303 301 301 300 300 299 299 297
321 322 320 322 323 324 323 323 323 321 321 321 321 320 320 319 319 318 318 317 318 316 316 314 312 309 306 303 298 297 296 297 297 296 296 296 295 294
320 320 320 321 322 322 322 323 320 321 321 321 321 320 319 319 318 318 317 316 316 315 315 315 314 312 309 305 299 295 294 293 293 293 293 293 292 292
317 318 317 320 321 320 320 320 321 321 320 320 319 318 318 316 316 315 315 315 314 313 312 312 311 311 309 308 305 294 290 289 290 290 291 290 291 285
310 310 313 315 318 318 319 320 320 320 319 318 318 317 315 313 312 313 313 313 312 308 307 307 306 304 302 299 300 298 292 291 289 289 288 287 284 282
300 301 305 308 312 316 316 316 315 316 317 317 316 312 312 309 308 307 307 307 307 304 302 300 298 299 297 298 297 293 289 289 287 287 288 283 281 281
297 296 297 300 299 303 304 303 306 310 311 310 309 307 307 304 304 302 302 302 302 298 297 295 295 295 294 291 289 287 287 287 286 285 281 281 282 281
294 291 291 292 292 294 294 297 297 298 300 302 303 301 300 298 299 298 297 297 296 293 291 290 291 292 291 287 283 284 286 283 280 280 280 282 282 281
286 284 285 286 288 290 289 290 290 289 291 293 293 295 294 294 294 293 293 292 290 289 288 288 289 289 290 287 284 282 280 280 281 281 280 279 279 279
284 285 284 283 283 284 286 286 288 288 288 289 289 290 290 291 290 289 288 288 287 287 287 286 286 285 284 283 280 279 279 280 280 280 279 279 280 280
282 283 283 284 283 283 284 284 285 286 286 287 287 287 287 288 287 287 286 286 284 282 281 280 280 280 281 281 280 279 278 278 278 278 278 278 279 281
281 281 282 283 283 283 283 283 283 283 284 284 284 284 284 283 282 281 280 280 280 280 279 279 279 279 279 279 279 278 277 277 277 277 278 277 277 277

GFSNE_850_thetae_135.txt.gz
Theta_e
325 324 323 321 324 326 331 332 331 331 330 330 329 329 328 327 324 323 321 322 323 322 321 320 320 318 318 318 316 316 316 314 312 310 307 307 309 311
323 322 322 323 320 328 331 332 332 331 330 329 329 329 328 327 324 323 322 323 323 323 322 320 319 319 317 317 318 317 316 315 313 313 311 310 312 315
323 323 323 324 328 331 332 332 331 331 331 330 329 328 327 326 324 322 322 322 323 322 323 320 319 318 317 316 317 316 315 314 315 313 312 313 315 316
324 327 328 328 331 333 333 332 331 331 331 330 329 328 327 326 325 321 322 322 322 322 322 320 319 317 316 316 316 316 315 315 315 314 315 314 316 317
327 330 331 331 329 331 328 330 331 332 331 329 327 328 327 326 325 321 322 322 321 321 323 320 319 316 315 316 316 316 315 316 315 314 315 315 316 317
320 322 322 323 324 324 329 327 331 330 330 327 328 328 327 326 324 321 322 321 321 322 321 320 318 316 317 317 317 317 316 316 316 315 315 315 317 316
319 320 321 321 322 321 328 325 321 329 328 326 330 327 326 326 325 321 321 321 321 320 320 318 317 317 317 316 317 317 317 317 316 315 315 315 315 315
314 317 322 321 321 322 325 324 321 327 330 328 329 326 326 326 325 321 321 321 320 320 320 319 320 319 316 317 318 318 317 317 317 316 314 314 314 315
310 312 319 323 322 322 322 321 321 327 326 327 328 325 325 326 325 321 321 321 322 320 320 319 319 319 316 315 315 316 315 317 315 316 316 314 315 314
311 313 316 322 324 324 323 321 324 325 326 326 325 326 326 326 324 321 321 321 321 321 319 316 315 315 314 315 316 316 315 315 316 314 315 314 314 313
311 314 317 321 323 324 323 321 323 324 325 326 325 324 324 323 321 320 320 321 319 319 316 314 312 310 309 311 313 313 310 315 313 311 313 311 309 309
314 317 320 322 321 323 323 323 323 324 323 324 324 323 321 321 321 321 321 321 319 317 316 312 311 310 304 304 305 306 305 308 308 306 305 305 304 303
313 318 320 321 320 323 322 322 322 323 323 325 323 322 320 321 321 320 320 319 319 319 318 314 312 311 308 304 301 301 301 302 302 301 300 301 300 299
310 315 318 320 320 320 320 322 322 323 323 323 322 321 320 320 319 320 319 318 318 318 317 315 314 313 311 307 302 299 298 297 298 298 297 297 296 294
303 305 311 317 318 319 320 320 321 321 321 322 320 320 321 320 319 319 318 318 318 316 313 313 312 313 310 311 309 302 297 294 294 294 294 293 293 292
297 301 303 306 312 315 316 318 318 320 319 320 319 320 320 319 317 317 317 317 316 312 310 309 309 308 307 303 305 304 297 294 291 290 291 290 289 289
292 295 297 298 300 303 305 308 310 311 314 314 319 317 317 315 314 315 313 312 311 310 307 305 304 301 301 302 299 298 295 291 290 289 288 288 287 285
292 291 290 290 291 294 295 298 299 303 304 309 305 311 312 307 311 307 306 304 305 303 303 300 300 299 297 294 293 293 289 288 286 286 286 286 284 283
286 284 284 284 284 286 288 290 293 294 294 297 301 300 301 300 302 299 300 300 299 298 295 294 294 296 295 289 283 286 286 286 285 285 285 283 283 282
282 282 280 281 281 281 284 285 287 288 290 291 294 292 292 295 293 293 293 294 291 289 288 288 290 291 293 287 284 283 284 285 285 283 282 283 283 282
281 281 281 280 280 280 281 281 283 285 286 287 288 288 288 288 288 287 286 286 285 286 286 286 286 288 289 287 284 282 282 282 282 282 281 281 280 280
279 280 281 281 281 281 280 281 282 282 283 283 284 285 285 284 284 284 285 286 286 286 285 284 284 285 286 287 284 282 281 281 281 280 280 282 281 282
278 279 280 281 281 281 281 281 281 282 282 282 282 283 283 284 284 284 284 284 284 283 282 281 282 282 281 280 280 279 278 277 277 277 278 278 278 280

GFSNE_850_thetae_138.txt.gz
Theta_e
327 327 327 327 324 325 325 323 320 325 327 330 330 330 329 328 328 328 328 325 322 323 323 323 323 324 322 320 317 317 317 315 314 310 306 303 304 305
327 328 328 326 326 324 324 326 322 324 328 328 328 329 329 329 329 328 327 324 322 322 322 323 322 323 321 320 318 317 316 315 315 314 313 306 305 306
331 330 326 327 328 325 323 323 322 325 331 331 330 329 328 328 329 328 327 324 322 322 323 323 322 321 320 320 318 318 317 317 316 315 314 313 312 308
330 330 330 329 328 328 327 326 329 329 330 332 330 330 328 327 328 328 326 325 322 322 322 323 322 322 321 320 318 318 317 317 317 315 314 312 313 310
327 329 329 328 328 327 324 330 328 328 329 330 330 328 330 328 327 327 326 325 321 322 322 321 321 322 322 320 320 317 316 316 316 315 314 315 314 313
318 319 320 323 324 323 324 327 327 325 329 326 324 326 329 328 327 326 327 326 324 321 322 321 321 323 322 320 321 317 316 316 315 315 315 314 315 315
314 315 316 320 321 322 323 323 322 322 322 327 327 326 327 328 327 326 327 326 324 321 322 321 321 323 322 320 319 317 316 316 316 315 314 315 315 314
309 310 312 316 319 321 322 321 321 323 326 325 326 322 325 327 327 326 327 325 322 322 321 321 320 321 322 320 319 316 316 317 317 316 316 315 316 314
309 310 311 310 310 312 320 323 323 321 321 324 325 322 324 324 325 325 326 325 325 323 320 320 318 321 321 320 317 316 317 317 316 316 316 316 315 315
310 311 311 311 311 311 313 319 323 322 323 323 324 322 323 324 323 326 326 324 323 320 319 320 319 320 320 319 318 317 318 317 317 317 317 316 315 312
308 309 311 310 310 312 315 318 320 321 322 323 322 323 322 323 325 324 323 324 321 319 319 319 319 318 317 316 316 317 318 316 318 317 316 315 313 315
307 309 310 310 312 314 315 318 319 323 323 322 322 322 323 324 325 324 324 323 322 318 319 318 318 317 311 310 311 311 312 314 315 315 313 314 312 313
300 305 309 312 315 317 318 319 320 320 321 322 322 322 323 323 323 323 323 322 321 320 320 320 318 316 311 311 307 307 307 308 309 307 306 305 307 305
297 298 301 304 313 316 318 319 321 319 319 321 321 322 322 322 322 322 321 321 320 321 321 320 319 318 314 309 307 304 302 301 302 303 301 300 300 299
293 294 296 300 304 310 313 317 319 319 319 320 320 320 321 322 321 321 321 321 320 320 319 318 317 318 315 313 311 307 302 298 297 298 298 299 299 297
292 293 294 295 297 298 304 308 311 313 315 316 318 318 319 319 318 320 320 319 319 317 317 314 313 313 313 309 308 307 303 300 296 295 295 294 294 293
291 292 293 293 292 294 295 296 298 301 305 305 307 309 313 313 313 315 316 318 316 317 311 308 307 308 306 306 303 302 302 296 295 293 291 291 290 289
288 287 285 284 284 284 286 288 290 293 295 296 298 301 304 306 308 307 309 313 311 310 308 305 307 302 301 298 297 301 297 294 292 289 289 289 287 286
284 282 281 281 280 281 282 283 284 285 287 290 292 294 296 300 299 302 300 301 302 302 300 298 298 301 298 295 287 290 293 289 287 286 286 287 286 285
281 280 280 280 280 280 280 281 282 283 284 285 287 289 291 293 294 297 295 298 297 295 293 292 292 294 298 293 285 284 286 288 286 285 284 284 284 284
280 279 279 279 280 280 280 280 281 281 282 283 283 284 286 288 288 288 287 288 288 286 286 287 288 289 291 290 285 283 283 284 284 284 284 283 283 282
278 279 279 279 279 279 280 280 281 281 281 282 282 282 283 284 285 285 285 286 286 286 285 284 284 285 285 288 283 282 282 282 283 284 284 284 283 281
276 277 278 279 279 279 280 280 280 280 280 281 281 281 282 282 283 284 285 284 284 283 282 283 283 284 284 283 283 283 282 282 282 281 282 282 282 283

GFSNE_850_thetae_141.txt.gz
Theta_e
330 332 327 329 331 331 324 325 325 326 324 322 322 322 325 328 329 329 329 327 327 327 326 321 322 322 323 322 322 320 318 316 315 314 310 308 305 302
332 330 328 331 330 326 327 327 324 325 325 324 321 323 327 328 329 329 328 328 328 327 325 322 322 323 323 323 323 322 319 316 316 315 314 311 308 305
327 328 329 328 326 327 328 326 325 325 325 324 322 321 326 328 329 329 327 327 328 328 324 321 321 322 322 322 323 323 321 317 317 316 314 313 310 312
328 330 329 329 330 330 327 328 328 327 327 326 326 326 328 327 328 328 326 326 327 327 325 322 322 322 322 322 323 324 321 318 317 315 315 315 314 312
330 330 331 331 330 330 329 328 328 328 327 327 326 326 325 328 329 329 328 327 327 327 326 324 321 322 322 322 321 323 321 320 318 316 316 316 315 313
324 325 327 327 327 326 326 327 327 327 327 327 328 326 329 328 328 327 327 328 327 326 326 324 321 321 322 322 320 321 322 321 317 317 317 317 316 314
319 319 320 321 321 322 322 324 326 324 322 322 322 322 322 327 327 324 325 327 327 326 326 325 322 321 321 321 320 320 322 321 318 316 316 315 315 315
309 310 311 313 315 317 319 321 320 320 323 323 321 322 320 322 326 325 326 326 326 325 325 326 323 321 321 321 320 321 322 320 320 316 316 315 315 315
309 310 310 310 310 310 310 312 318 318 320 321 323 321 321 324 324 324 323 323 324 324 324 325 323 321 321 320 320 321 322 321 319 318 317 316 315 314
306 308 309 309 309 310 310 311 310 312 315 319 321 321 321 320 322 323 322 322 324 324 323 323 323 322 319 319 320 320 322 321 320 318 316 315 316 316
301 302 302 304 307 309 308 308 309 311 311 314 319 322 323 323 322 324 323 320 322 323 323 321 321 320 320 318 318 321 321 320 320 318 316 315 317 317
298 299 299 303 306 306 308 309 311 311 315 315 316 319 320 322 322 322 323 322 321 321 322 320 320 319 318 317 317 318 319 319 319 318 317 317 317 315
295 295 297 299 301 304 306 308 310 313 316 316 317 318 321 321 322 322 322 320 321 321 323 322 320 318 318 317 318 317 318 317 317 316 315 314 316 316
292 292 293 294 297 299 304 306 309 315 316 317 318 320 320 321 321 322 322 322 321 322 319 322 321 318 318 316 315 314 314 312 311 310 310 311 312 308
289 289 291 292 294 296 298 302 305 309 312 315 315 317 318 318 318 319 320 320 320 320 319 321 320 320 319 318 316 315 312 306 305 305 305 303 302 300
288 288 289 290 291 292 293 295 297 299 301 302 307 311 314 315 317 317 317 317 317 317 319 319 319 316 317 315 316 315 313 310 303 298 299 299 297 298
287 288 288 288 289 288 288 289 290 292 294 296 299 302 305 307 309 311 311 310 314 313 316 314 312 312 309 313 310 309 311 306 300 299 296 296 295 294
285 285 284 284 283 283 283 284 285 286 287 289 290 292 295 298 300 302 303 304 306 307 308 312 309 308 303 303 302 305 303 301 298 295 294 294 291 289
283 281 281 281 281 281 282 282 282 283 284 285 286 287 289 291 293 295 296 298 300 301 302 304 298 304 308 300 295 294 299 296 293 290 290 290 289 286
280 280 279 280 280 281 281 281 281 282 282 283 284 284 285 286 289 291 292 293 295 296 297 296 297 296 301 299 292 288 288 291 290 287 286 287 287 285
278 279 279 279 279 280 280 281 280 281 281 282 282 283 283 284 285 286 287 289 290 290 290 290 291 291 294 293 287 284 284 286 286 287 286 285 284 283
275 275 277 278 279 279 280 280 280 280 280 281 281 282 282 283 283 284 284 285 286 287 287 286 286 288 288 291 284 283 283 284 284 284 284 285 284 283
273 273 274 274 276 278 279 279 280 280 280 280 280 281 282 282 282 282 282 282 283 283 283 283 284 285 285 285 284 283 283 283 283 283 283 283 284 284

GFSNE_850_thetae_144.txt.gz
Theta_e
335 334 334 333 333 333 331 330 329 328 326 326 326 325 325 324 323 326 325 328 328 328 327 327 327 327 322 324 323 323 321 318 317 316 316 315 313 307
335 335 335 334 333 333 332 331 331 328 326 326 324 323 322 322 325 325 326 327 328 328 327 327 327 326 321 322 322 323 320 320 319 318 317 315 311 308
333 333 334 332 333 333 331 332 331 325 328 326 325 325 324 321 320 322 324 328 328 328 327 327 327 326 322 321 322 322 323 321 322 319 315 315 313 312
333 331 332 334 334 331 331 329 326 327 328 326 325 325 324 324 324 326 326 327 328 326 326 327 327 327 323 322 322 322 322 322 323 322 316 313 315 314
333 333 332 329 330 329 329 329 329 328 328 328 327 326 326 325 326 325 324 327 328 327 327 326 327 327 324 322 322 322 322 321 322 322 319 316 316 315
330 330 329 329 330 330 329 329 328 328 328 328 327 327 327 327 326 326 324 327 325 328 328 327 327 326 326 323 321 322 322 321 321 323 321 317 316 314
323 325 325 325 326 328 326 327 326 326 326 326 326 326 326 328 328 325 323 323 322 325 322 326 327 326 326 325 321 321 322 322 322 321 322 319 316 315
317 323 323 324 322 322 321 323 323 323 322 323 323 323 323 321 321 321 321 322 321 324 322 325 325 326 325 325 322 321 321 321 321 319 323 321 318 316
300 309 310 310 310 310 309 313 317 317 317 318 318 319 320 322 321 320 321 320 323 323 323 323 325 324 324 323 324 322 321 321 321 320 321 322 318 316
303 307 309 309 309 307 309 309 310 309 309 311 314 316 316 316 319 321 321 319 323 322 323 322 322 323 323 323 323 323 322 321 320 319 320 322 320 318
303 303 305 305 305 305 307 307 309 310 310 309 310 309 312 316 318 320 321 321 320 322 320 321 321 321 320 322 322 321 322 322 320 319 321 322 321 320
298 298 299 301 298 300 302 305 308 310 311 310 310 311 314 312 316 320 320 320 320 319 320 319 320 318 320 321 321 321 320 320 318 318 320 320 320 319
291 292 294 293 295 297 298 299 300 305 309 310 312 314 315 315 314 316 320 320 319 320 320 320 319 319 319 319 319 320 320 319 318 318 319 320 319 318
290 290 291 290 291 292 293 294 296 300 304 306 309 312 314 316 316 317 320 319 317 321 321 318 319 319 319 319 318 318 319 319 318 318 318 318 318 317
288 287 288 289 290 291 291 291 294 296 298 302 306 309 311 314 316 317 318 319 318 318 316 319 318 318 318 318 317 319 317 318 318 317 317 315 316 316
287 288 288 288 288 288 288 289 289 289 290 291 294 298 302 306 312 312 315 316 316 316 318 317 316 316 316 317 318 319 317 315 315 315 314 310 310 309
286 287 288 288 287 287 287 286 286 287 287 287 289 291 294 297 302 305 307 308 309 311 312 312 311 312 312 312 313 314 313 313 310 312 306 303 301 300
285 284 283 283 283 283 283 284 283 283 284 285 285 286 288 290 293 296 298 301 303 304 304 304 304 307 306 304 305 307 306 306 305 302 300 299 297 295
283 281 281 281 281 281 282 282 282 282 282 283 283 284 285 286 288 290 292 293 296 297 298 297 299 301 300 299 300 298 299 303 299 294 293 294 295 292
277 278 279 279 279 280 280 280 281 282 282 282 282 283 283 283 284 286 287 288 290 292 293 294 295 296 295 297 297 293 292 295 294 292 289 289 290 288
275 275 275 276 278 278 279 279 280 280 280 281 281 281 282 283 283 284 284 285 285 287 288 289 290 292 293 294 293 288 286 287 289 290 288 288 286 285
274 273 273 274 274 275 277 278 279 279 280 280 280 280 281 282 282 282 283 283 284 284 284 285 286 288 290 292 287 285 284 284 285 286 287 288 285 283
273 273 273 273 273 274 274 274 276 278 278 278 279 280 280 281 281 282 281 282 282 282 282 283 283 285 285 285 285 283 283 283 283 284 284 286 286 286

GFSNE_850_thetae_147.txt.gz
Theta_e
323 328 331 331 333 334 333 331 330 331 330 329 329 326 325 327 326 326 324 324 325 325 327 328 327 327 327 326 326 325 324 323 322 319 317 315 314 313
324 325 333 331 331 333 332 331 330 332 330 328 328 325 326 325 324 325 324 324 326 326 327 327 327 327 327 327 326 324 323 323 322 323 318 317 315 314
322 322 331 330 331 332 330 330 331 333 331 330 330 327 326 324 322 322 324 325 323 325 327 326 327 327 327 327 326 325 322 324 323 322 322 318 317 315
326 324 330 331 329 330 328 327 330 332 331 330 330 326 327 325 324 324 322 321 322 323 324 326 326 326 326 326 327 326 322 322 322 321 324 319 319 317
323 326 327 327 330 328 327 327 328 331 330 330 327 326 328 326 325 325 324 323 323 323 322 323 326 326 326 326 326 326 323 322 321 321 324 321 321 320
320 322 320 327 329 328 327 328 329 328 327 328 327 329 328 327 327 326 326 325 325 325 323 325 326 327 327 326 327 326 325 322 321 321 322 321 321 322
315 316 312 312 323 327 328 329 328 328 327 325 326 328 328 326 326 326 326 324 324 325 324 325 321 326 327 326 326 326 326 324 321 322 322 322 322 323
307 306 308 301 310 308 325 326 326 327 327 325 325 325 325 326 324 324 323 325 321 321 320 319 322 323 322 321 326 326 325 325 322 321 322 322 321 322
304 305 307 304 304 304 305 318 317 321 320 319 321 321 322 323 322 321 321 320 321 320 320 320 319 322 321 321 324 324 324 324 324 322 320 320 321 321
300 302 304 306 308 306 303 311 310 311 311 314 312 312 313 316 318 318 319 319 318 320 320 320 318 323 321 322 325 324 323 323 322 323 323 321 320 320
298 300 302 301 302 303 302 308 308 310 310 310 310 309 310 309 309 311 315 315 315 316 315 319 320 319 318 321 321 321 323 322 323 322 322 322 321 320
294 294 295 297 299 301 302 305 307 308 309 309 309 309 309 309 309 309 310 311 314 316 317 318 319 319 319 318 320 320 319 320 320 320 320 320 321 320
291 291 291 292 292 294 296 298 297 298 300 303 306 308 309 309 310 310 311 311 312 314 316 317 319 318 317 319 318 318 319 319 320 321 320 320 320 319
286 285 285 285 287 289 291 291 292 293 295 298 300 302 305 308 309 309 310 310 312 314 314 315 317 317 317 318 317 317 317 318 319 319 319 319 319 319
286 285 286 286 287 287 287 288 289 290 291 292 292 293 294 298 303 305 307 310 313 314 314 313 314 316 316 318 317 317 318 318 318 319 319 318 318 318
286 286 286 286 286 286 287 287 287 286 286 287 288 289 290 292 294 296 302 307 310 313 313 313 314 314 312 314 314 315 316 316 317 318 317 316 315 314
284 286 286 286 286 286 285 285 285 285 285 285 285 287 288 289 290 291 293 296 297 302 309 311 309 307 310 310 311 311 312 313 314 314 314 314 311 309
281 281 282 282 282 282 282 282 282 283 283 283 283 284 284 285 286 287 288 290 292 294 297 300 301 303 304 304 304 307 309 309 308 310 307 305 305 304
279 277 277 277 279 280 280 280 280 281 281 281 282 282 282 283 283 284 285 286 288 289 290 292 295 295 295 297 301 303 302 304 303 302 300 299 299 299
277 276 275 275 275 276 277 279 280 280 280 280 281 281 281 281 282 282 283 283 284 285 287 288 290 292 292 293 295 296 298 298 297 297 295 293 294 294
276 276 275 275 275 275 275 275 276 278 279 279 280 280 280 280 281 281 281 282 282 283 284 285 287 288 290 290 291 292 292 292 291 293 292 290 289 288
274 275 274 274 275 274 274 274 275 275 276 278 279 279 279 280 280 280 281 281 281 281 282 283 284 285 286 288 289 289 288 287 286 287 287 291 288 285
274 274 274 274 274 274 274 274 274 274 274 275 277 278 278 279 279 279 280 280 280 281 281 281 282 283 284 284 284 283 283 284 284 284 285 287 288 289

GFSNE_850_thetae_150.txt.gz
Theta_e
318 321 323 319 320 329 330 329 330 328 329 329 327 325 325 327 327 325 326 326 326 326 325 327 327 327 327 326 326 325 325 323 323 322 322 322 321 312
314 312 321 324 324 324 326 330 329 329 328 328 327 327 328 327 327 325 326 326 326 325 324 325 325 326 327 327 327 326 326 324 323 322 322 322 322 315
317 313 311 319 321 324 328 329 329 329 328 327 328 328 328 328 326 325 324 324 325 325 324 325 326 326 327 327 327 327 326 326 325 323 322 322 323 321
320 319 318 315 318 321 323 322 329 328 328 327 327 327 328 326 327 326 322 321 322 323 325 323 323 325 325 326 326 326 326 326 325 324 322 323 323 322
315 318 322 321 322 323 323 328 328 329 327 328 326 327 328 328 327 326 326 323 323 322 321 322 323 323 323 325 326 326 326 326 327 325 322 320 324 322
314 316 320 322 324 324 325 328 328 329 327 327 326 327 328 328 327 326 327 325 324 324 324 324 324 324 323 322 326 326 325 326 326 326 324 322 321 322
299 308 312 318 322 325 323 323 323 327 327 326 326 328 328 327 326 327 327 326 325 325 325 325 325 325 323 324 326 326 327 325 326 325 325 322 321 321
293 297 303 304 308 312 321 323 325 326 327 326 327 327 328 326 326 327 327 326 325 324 324 324 324 324 320 317 320 318 327 327 326 326 325 324 322 321
287 291 297 302 306 306 307 313 317 322 323 326 326 327 327 326 326 325 324 323 323 322 322 321 320 320 318 318 319 321 322 322 323 325 325 324 324 322
287 286 287 294 299 302 305 306 305 306 308 314 316 318 319 320 319 319 320 319 318 319 320 319 319 317 318 318 319 322 320 321 323 325 324 324 323 323
289 288 287 289 290 297 301 301 301 304 302 306 306 306 309 311 311 310 314 310 309 311 317 317 318 316 315 317 318 319 320 321 323 323 323 323 322 322
288 288 287 289 290 294 297 299 300 300 301 302 301 302 301 304 309 308 309 309 308 306 308 311 313 313 313 312 316 318 317 319 320 319 320 322 322 321
286 287 288 288 290 291 293 293 293 294 297 297 298 300 302 305 307 305 308 309 306 306 307 310 312 314 315 317 316 317 318 318 319 319 318 319 319 319
284 283 284 285 286 287 289 290 291 292 294 296 298 299 301 301 302 304 305 303 302 303 306 309 310 311 314 314 316 318 317 317 317 317 317 318 319 319
283 283 284 284 284 285 285 286 286 287 288 289 289 289 290 290 291 295 298 298 300 301 303 306 307 310 310 312 312 314 315 316 316 318 317 318 318 318
281 280 281 282 282 283 284 284 283 283 283 284 284 285 286 287 288 289 292 294 298 300 301 303 304 304 309 310 311 311 312 312 315 316 316 316 316 316
280 280 281 280 280 281 282 282 282 282 283 282 283 283 284 284 285 286 286 288 288 290 295 297 299 302 304 306 307 309 307 307 313 312 313 314 313 313
280 279 278 277 277 277 277 279 281 281 281 282 282 282 282 282 283 284 283 284 284 285 287 289 292 296 300 301 301 304 303 306 306 306 306 310 311 312
279 277 276 275 275 275 275 275 276 278 280 281 281 281 281 281 282 282 282 283 283 283 284 285 286 287 289 290 294 296 297 300 300 301 301 303 304 306
277 276 276 276 275 275 275 275 275 275 276 279 280 280 280 280 280 281 281 281 281 282 283 283 284 285 284 285 287 290 292 293 295 296 297 297 296 297
273 273 274 274 275 275 275 275 274 275 274 275 276 278 279 279 279 279 280 280 280 280 281 282 282 283 284 285 286 287 289 291 292 293 292 292 292 291
273 272 272 272 272 273 273 274 275 275 275 275 274 275 276 278 278 278 279 279 279 279 280 280 281 282 283 284 285 285 285 287 287 287 287 288 289 288
273 272 272 272 272 272 272 272 273 273 274 274 274 274 274 275 277 278 278 278 279 279 279 279 279 280 281 281 282 283 283 284 284 285 285 286 287 289